Weather in Novosibirsk

Russia / Novosibirsk Oblast     55°01′48″N   82°55′13″E
temp.,
°C
wind,
m/s
gust,
m/s
humid.,
%
clouds,
%
prec.,
mm/h
press.,
hPa
HPBL,
m
7 may, fri
fri701:00+15s3663100 0.0 100184
04:00+16nw6147093 0.0 1002459
07:00+13nw61171100 0.0 1006602
10:00+15nw6855100 0.0 10081157
13:00+16wnw81035100 0.0 10101793
16:00+17wnw81031100 0.0 10112177
19:00+16wnw610375 0.0 10132294
22:00+12w511440 0.0 1015352
8 may, sat
sat801:00+9w410570 0.0 1017226
04:00+7w34630 0.0 101967
07:00+8wsw38610 0.0 1019184
10:00+14wsw6103864 0.0 1018912
13:00+18w9123899 0.0 10172343
16:00+16wnw5104969 0.0 1016423
19:00+17w713457 0.0 1016722
22:00+15wnw2357100 0.0 101645
9 may, sun
sun901:00+13nw2267100 0.0 101630
04:00+10nne35766 0.0 1017189
07:00+7ne47710 0.0 1019282
10:00+10nne45545 0.0 1020756
13:00+13n45425 0.0 10201352
16:00+14nne45340 0.0 10191625
19:00+13ne55370 0.0 10201517
22:00+9ene34542 0.0 102152
10 may, mon
mon1001:00+7ene5126176 0.0 1021387
04:00+5ene410725 0.0 1021281
07:00+5ene511755 0.0 1020412
10:00+9ene68537 0.0 10201025
13:00+13ne81041100 0.0 10171511
16:00+15ene7936100 0.0 10152040
19:00+15ne79416 0.0 10152075
22:00+11ne71450100 0.0 1015592
11 may, tue
tue1101:00+8ne612633 0.0 1016445
04:00+6ne512695 0.0 1015384
07:00+7nne61372100 0.0 1016473
10:00+12ne810535 0.0 10151166
13:00+15ne8939100 0.0 10152032
16:00+16ne7834100 0.0 10142305
19:00+16ne5840100 0.0 10151496
22:00+12nne61247100 0.0 1015368